Tracking 19909 objects as of 21-Oct-2019
HD Live streaming from Space Station
objects crossing your sky now

WESTFORD NEEDLES

Track WESTFORD NEEDLES now!
10-day predictions
WESTFORD NEEDLES is classified as:


NORAD ID: 2377
Int'l Code: 1963-014X
Perigee: 2,794.5 km
Apogee: 4,452.0 km
Inclination: 87.3 °
Period: 165.7 minutes
Semi major axis: 9994 km
RCS: 0.1884 m2 (medium)
Launch date: May 9, 1963
Source: United States (US)
Launch site: AIR FORCE WESTERN TEST RANGE (AFWTR)
aabbcc
Your satellite tracking list
Your tracking list is empty




NASA's NSSDC Master Catalog

Two Line Element Set (TLE):
1  2377U 63014X   19248.43232740  .00000036  00000-0  10073-1 0  9993
2  2377  87.3038  48.6331 0829266  36.7421 328.7465  8.68915099710795
Source of the keplerian elements: AFSPC